Back to catalog

FENGYUN 2D

AliveWeatherGEO
NORAD 29640·PAYLOAD·🇨🇳 China

Launched Dec 8, 2006 from Xichang Satellite Launch Center

Loading…

TLE

FreshSource: Space-Track

Epoch: Sep 14, 2026, 07:34 UTC

1 29640U 06053A   26257.31537782 -.00000169  00000-0  00000-0 0  9990
2 29640  11.1602  40.3059 0008836  38.4969 156.6955  0.98194139 71873

Track FENGYUN 2D in real time with AllMySat

Download on the App Store